Weather History for KAVL - June, 2006

Change the Weather History Date:

Friday, June 16, 2006

  Actual Average Record
Temperature  
Mean Temperature 66 °F 71 °F  
Max Temperature 82 °F 82 °F 92 °F (1934)
Min Temperature 52 °F 60 °F 43 °F (1933)
Degree Days  
Heating Degree Days 0 0  
Month to date heating degree days 11  
Since 1 June heating degree days 11  
Since 1 July heating degree days 4192  
Cooling Degree Days 2 6  
Month to date cooling degree days 78  
Year to date cooling degree days 136  
Since 1 June cooling degree days 78  
Growing Degree Days 16 (Base 50)    
Moisture  
Dew Point 53 °F    
Average Humidity 63    
Maximum Humidity 89    
Minimum Humidity 41    
Precipitation  
Precipitation 0.00 in 0.16 in 2.30 in (1900)
Month to date precipitation 2.44  
Year to date precipitation 20.69  
Snow  
Snow 0.00 in 0.00 in 0.00 in ()
Month to date snowfall 0.0  
Since 1 June snowfall 0.0  
Since 1 July snowfall 9.9  
Snow Depth -    
Sea Level Pressure  
Sea Level Pressure 30.19 in    
Wind  
Wind Speed 3 mph (South)    
Max Wind Speed 12 mph    
Max Gust Speed -    
Visibility 10 miles    
Events      
T = Trace of Precipitation, MM = Missing Value Source: NWS Daily Summary

Daily Weather History Graph

Daily Weather History Graph

Search for Another Location

Airport or City:

Trip Planner

Search our weather history database for the weather conditions in past years. The results will help you decide how hot, cold, wet, or windy it might be!

Date:

Astronomy

Jun. 16, 2006 Rise Set
Actual Time 6:14 AM EDT 8:47 PM EDT
Civil Twilight 5:44 AM EDT 9:17 PM EDT
Nautical Twilight 5:07 AM EDT 9:54 PM EDT
Astronomical Twilight 4:26 AM EDT 10:35 PM EDT
Moon 12:28 AM EDT (6/16) 11:19 AM EDT (6/16)
Length of Visible Light 15h 32m
Length of Day
14h 32m
Waning Gibbous, 72% of the Moon is Illuminated
Jun 16
Waning Gibbous
Jun 18
Last Quarter
Jun 25
New
Jul 3
First Quarter
Jul 10
Full

Hourly Weather History & Observations

Time (EDT) Temp. Heat Index Dew Point Humidity Pressure Visibility Wind Dir Wind Speed Gust Speed Precip Events Conditions
12:54 AM 59.0 °F - 51.1 °F 75% 30.15 in 10.0 mi Calm Calm - N/A   Clear
1:54 AM 57.9 °F - 50.0 °F 75% 30.16 in 10.0 mi Calm Calm - N/A   Clear
2:54 AM 55.0 °F - 51.1 °F 86% 30.16 in 10.0 mi NW 3.5 mph - N/A   Clear
3:54 AM 53.1 °F - 50.0 °F 89% 30.17 in 9.0 mi Calm Calm - N/A   Scattered Clouds
4:54 AM 54.0 °F - 50.0 °F 86% 30.17 in 8.0 mi Calm Calm - N/A   Partly Cloudy
5:54 AM 52.0 °F - 48.9 °F 89% 30.19 in 5.0 mi Calm Calm - N/A   Clear
6:54 AM 53.1 °F - 50.0 °F 89% 30.21 in 10.0 mi Calm Calm - N/A   Clear
7:54 AM 55.4 °F - 51.8 °F 88% 30.27 in 10.0 mi Calm Calm - N/A   Clear
8:54 AM 62.1 °F - 52.0 °F 70% 30.22 in 10.0 mi Variable 3.5 mph - N/A   Clear
9:54 AM 68.0 °F - 52.0 °F 56% 30.22 in 10.0 mi Calm Calm - N/A   Clear
10:54 AM 73.0 °F - 53.1 °F 49% 30.22 in 10.0 mi SSE 8.1 mph - N/A   Clear
11:54 AM 77.0 °F - 54.0 °F 45% 30.21 in 10.0 mi SSE 6.9 mph - N/A   Clear
12:54 PM 79.0 °F - 54.0 °F 42% 30.20 in 10.0 mi South 8.1 mph - N/A   Partly Cloudy
1:54 PM 78.1 °F - 53.1 °F 42% 30.19 in 10.0 mi SSE 8.1 mph - N/A   Mostly Cloudy
2:54 PM 78.1 °F - 54.0 °F 43% 30.19 in 10.0 mi South 11.5 mph - N/A   Scattered Clouds
3:54 PM 81.0 °F 80.7 °F 55.0 °F 41% 30.18 in 10.0 mi South 9.2 mph - N/A   Scattered Clouds
4:54 PM 80.1 °F 80.2 °F 55.9 °F 43% 30.17 in 10.0 mi South 9.2 mph - N/A   Partly Cloudy
5:54 PM 79.0 °F - 55.9 °F 45% 30.16 in 10.0 mi South 10.4 mph - N/A   Scattered Clouds
6:54 PM 77.0 °F - 55.0 °F 47% 30.16 in 10.0 mi South 9.2 mph - N/A   Clear
7:54 PM 75.0 °F - 55.0 °F 50% 30.17 in 10.0 mi South 5.8 mph - N/A   Clear
8:54 PM 70.0 °F - 55.9 °F 61% 30.18 in 10.0 mi South 4.6 mph - N/A   Clear
9:54 PM 68.0 °F - 55.9 °F 65% 30.18 in 10.0 mi Calm Calm - N/A   Clear
10:54 PM 66.0 °F - 55.9 °F 70% 30.19 in 8.0 mi Calm Calm - N/A   Partly Cloudy
11:54 PM 63.0 °F - 55.9 °F 78% 30.19 in 7.0 mi Calm Calm - N/A   Partly Cloudy